Weather History for Gander, NL

Change the Weather History Date:

Saturday, November 3, 2012

  Actual Average Record
Temperature  
Mean Temperature 53 °F -  
Max Temperature 57 °F 41 °F 59 °F (2001)
Min Temperature 49 °F 31 °F 24 °F (2008)
Degree Days  
Heating Degree Days 12    
Growing Degree Days 3 (Base 50)    
Moisture  
Dew Point 52 °F    
Average Humidity 97    
Maximum Humidity 100    
Minimum Humidity 88    
Precipitation  
Precipitation 0.20 in - - ()
Sea Level Pressure  
Sea Level Pressure 29.54 in    
Wind  
Wind Speed 9 mph ()    
Max Wind Speed 17 mph    
Max Gust Speed 24 mph    
Visibility 5.1 miles    
Events Fog , Rain    
Averages and records for this station are not official NWS values.
T = Trace of Precipitation, MM = Missing Value Source: Averaged Metar Reports

Daily Weather History Graph

Daily Weather History Graph

Search for Another Location

Airport:

Trip Planner

Search our weather history database for the weather conditions in past years. The results will help you decide how hot, cold, wet, or windy it might be!

Date:

Astronomy

Nov. 03, 2012 Rise Set
Actual Time 7:59 AM NDT 5:43 PM NDT
Civil Twilight 7:25 AM NDT 6:17 PM NDT
Nautical Twilight 6:48 AM NDT 6:54 PM NDT
Astronomical Twilight 6:11 AM NDT 7:31 PM NDT
Moon 9:10 PM NDT (11/3) 12:08 PM NDT (11/3)
Length of Visible Light 10h 51m
Length of Day
9h 44m
Waning Gibbous, 81% of the Moon is Illuminated
Nov 3
Waning Gibbous
Nov 6
Last Quarter
Nov 13
New
Nov 20
First Quarter
Nov 28
Full

Hourly Weather History & Observations

Time (NDT) Temp. Dew Point Humidity Pressure Visibility Wind Dir Wind Speed Gust Speed Precip Events Conditions
12:11 AM 51.8 °F 51.8 °F 100% 29.69 in 1.5 mi SSE 9.2 mph - N/A   Overcast
12:20 AM 51.8 °F 51.8 °F 100% 29.69 in 1.0 mi SSE 13.8 mph - N/A   Overcast
12:30 AM 51.8 °F 51.8 °F 100% 29.68 in 0.8 mi SSE 9.2 mph - N/A   Overcast
12:36 AM 51.8 °F 51.8 °F 100% 29.68 in 0.4 mi SSE 9.2 mph - N/A Fog Fog
1:09 AM 51.8 °F 51.8 °F 100% 29.68 in 0.1 mi SE 9.2 mph - N/A Fog Fog
1:30 AM 51.8 °F 51.8 °F 100% 29.68 in 0.1 mi SSE 10.4 mph - N/A Fog Fog
1:51 AM 51.8 °F 51.8 °F 100% 29.67 in 0.2 mi SE 5.8 mph - N/A Fog Fog
2:05 AM 51.8 °F 51.8 °F 100% 29.67 in 0.1 mi SE 9.2 mph - N/A Fog Light Drizzle
2:30 AM 51.8 °F 51.8 °F 100% 29.67 in 0.1 mi SE 10.4 mph - N/A Fog Light Drizzle
3:11 AM 51.8 °F 51.8 °F 100% 29.65 in 0.2 mi SSE 6.9 mph - N/A Fog Fog
3:30 AM 53 °F 52 °F 97% 29.65 in 0 mi SE 5.8 mph - - Fog Heavy Fog
3:30 AM 51.8 °F 51.8 °F 100% 29.65 in 0.1 mi SE 6.9 mph - N/A Fog Fog
4:30 AM 51.8 °F 51.8 °F 100% 29.63 in 0.1 mi ESE 5.8 mph - N/A Fog Fog
5:02 AM 51.8 °F 51.8 °F 100% 29.62 in 0.1 mi ESE 5.8 mph - N/A Fog , Rain Light Rain
5:17 AM 51.8 °F 51.8 °F 100% 29.62 in 0.2 mi East 5.8 mph - N/A Fog , Rain Light Rain
5:30 AM 51.8 °F 51.8 °F 100% 29.61 in 0.2 mi East 5.8 mph - N/A Fog , Rain Light Rain
6:10 AM 51.8 °F 51.8 °F 100% 29.60 in 0.5 mi East 8.1 mph - N/A Fog , Rain Light Rain
6:30 AM 51.8 °F 50.0 °F 94% 29.59 in 0.5 mi ENE 6.9 mph - N/A Fog , Rain Light Rain
7:30 AM 50.0 °F 50.0 °F 100% 29.56 in 0.5 mi East 8.1 mph - N/A Fog , Rain Light Rain
7:47 AM 50.0 °F 50.0 °F 100% 29.55 in 1.5 mi ENE 6.9 mph - N/A Rain Light Rain
8:07 AM 50.0 °F 50.0 °F 100% 29.54 in 1.0 mi ENE 9.2 mph - N/A Rain Light Rain
8:20 AM 50.0 °F 50.0 °F 100% 29.53 in 0.8 mi ENE 8.1 mph - N/A Rain Light Rain
8:30 AM 50.0 °F 50.0 °F 100% 29.53 in 0.8 mi ENE 9.2 mph - N/A Rain Light Rain
8:40 AM 50.0 °F 50.0 °F 100% 29.53 in 1.5 mi East 8.1 mph - N/A Rain Light Rain
9:30 AM 50 °F 50 °F 100% 29.51 in 2 mi East 9.2 mph - - Rain Light Rain
9:30 AM 50.0 °F 50.0 °F 100% 29.51 in 2.5 mi ESE 8.1 mph - N/A Rain Light Rain
9:48 AM 50.0 °F 50.0 °F 100% 29.50 in 3.0 mi East 10.4 mph 17.3 mph N/A Rain Light Rain
10:30 AM 51.8 °F 50.0 °F 94% 29.49 in 3.0 mi ESE 9.2 mph - N/A Rain Light Rain
10:47 AM 51.8 °F 51.8 °F 100% 29.48 in 1.5 mi ESE 12.7 mph - N/A   Light Drizzle
10:53 AM 51.8 °F 51.8 °F 100% 29.48 in 0.8 mi ESE 11.5 mph - N/A   Light Drizzle
11:15 AM 51.8 °F 51.8 °F 100% 29.47 in 0.5 mi ESE 13.8 mph - N/A Fog Light Drizzle
11:30 AM 51.8 °F 51.8 °F 100% 29.47 in 0.5 mi SE 12.7 mph 21.9 mph N/A Fog Light Drizzle
12:05 PM 53.6 °F 53.6 °F 100% 29.46 in 0.2 mi SE 10.4 mph 18.4 mph N/A Fog Light Drizzle
12:17 PM 53.6 °F 53.6 °F 100% 29.46 in 1.0 mi SSE 11.5 mph - N/A   Light Drizzle
12:30 PM 55.4 °F 53.6 °F 94% 29.46 in 2.5 mi SSE 13.8 mph 19.6 mph N/A   Light Drizzle
12:47 PM 55.4 °F 55.4 °F 100% 29.45 in 10.0 mi SSE 13.8 mph - N/A   Overcast
1:20 PM 57.2 °F 55.4 °F 94% 29.45 in 8.0 mi SSE 11.5 mph - N/A   Light Drizzle
1:30 PM 57.2 °F 55.4 °F 94% 29.45 in 8.0 mi SSE 13.8 mph - N/A   Light Drizzle
2:30 PM 57.2 °F 57.2 °F 100% 29.44 in 10.0 mi SSE 12.7 mph - N/A   Light Drizzle
3:04 PM 57.2 °F 55.4 °F 94% 29.44 in 6.0 mi South 15.0 mph - N/A Rain Light Rain
3:20 PM 57.2 °F 57.2 °F 100% 29.44 in 6.0 mi South 12.7 mph - N/A   Light Drizzle
3:30 PM 57 °F 56 °F 97% 29.45 in 10 mi South 13.8 mph - - Rain Light Drizzle
3:30 PM 57.2 °F 55.4 °F 94% 29.45 in 10.0 mi South 15.0 mph - N/A   Light Drizzle
4:07 PM 57.2 °F 55.4 °F 94% 29.46 in 15.0 mi South 16.1 mph 21.9 mph N/A   Mostly Cloudy
4:30 PM 57.2 °F 55.4 °F 94% 29.46 in 20.0 mi South 16.1 mph 24.2 mph N/A   Mostly Cloudy
5:30 PM 55.4 °F 51.8 °F 88% 29.48 in 20.0 mi SSW 17.3 mph 24.2 mph N/A   Mostly Cloudy
5:46 PM 55.4 °F 51.8 °F 88% 29.49 in 20.0 mi South 11.5 mph 19.6 mph N/A   Overcast
6:06 PM 55.4 °F 51.8 °F 88% 29.49 in 20.0 mi SSW 12.7 mph - N/A   Overcast
7:30 PM 53.6 °F 51.8 °F 94% 29.51 in 20.0 mi SSW 10.4 mph - N/A   Overcast
8:30 PM 51.8 °F 50.0 °F 94% 29.51 in 15.0 mi SSW 8.1 mph - N/A   Overcast
9:30 PM 51 °F 50 °F 97% 29.52 in 15 mi SSE 9.2 mph - -   Partly Cloudy
9:30 PM 51.8 °F 50.0 °F 94% 29.52 in 15.0 mi SSE 11.5 mph - N/A   Overcast
9:57 PM 51.8 °F 50.0 °F 94% 29.52 in 15.0 mi SSE 3.5 mph - N/A Rain Light Rain
10:16 PM 51.8 °F 50.0 °F 94% 29.50 in 10.0 mi ESE 5.8 mph - N/A Rain Light Rain
10:30 PM 51.8 °F 50.0 °F 94% 29.49 in 8.0 mi East 4.6 mph - N/A Rain Light Rain
10:41 PM 51.8 °F 50.0 °F 94% 29.49 in 8.0 mi ENE 3.5 mph - N/A Rain Light Rain
11:02 PM 51.8 °F 50.0 °F 94% 29.48 in 6.0 mi ESE 4.6 mph - N/A   Overcast
11:14 PM 51.8 °F 50.0 °F 94% 29.48 in 6.0 mi ESE 4.6 mph - N/A Rain Light Rain
11:30 PM 51.8 °F 50.0 °F 94% 29.47 in 1.5 mi East 5.8 mph - N/A   Overcast
11:35 PM 51.8 °F 50.0 °F 94% 29.47 in 0.5 mi NE 5.8 mph - N/A Fog Fog
11:46 PM 51.8 °F 50.0 °F 94% 29.47 in 1.2 mi East 8.1 mph - N/A Rain Light Rain